Location: Paderno d�Adda
(45.6667°N, 9.4333°E)
Time: 09:43:31
(UTC+00:00)

ATLAS 3B R/B - Pass Details

Date: 24 January 2021
Orbit: 1006 x 1189 km, 63.8° (Epoch: 24 February)

Event Time Altitude Azimuth Distance (km) Brightness Sun altitude
Rises 17:32:43 0° 307° (NW) 3,910 6.2 -13.2°
Reaches altitude 10° 17:36:47 10° 285° (WNW) 2,987 6.1 -13.9°
Maximum altitude 17:40:14 14° 255° (WSW) 2,703 6.1 -14.5°
Drops below altitude 10° 17:43:45 10° 226° (SW) 3,040 6.0 -15.1°
Sets 17:48:00 0° 203° (SSW) 4,027 6.2 -15.8°
